Location: Unspecified
(0.0000°N, 0.0000°E)
Time: 08:58:12
(UTC+00:00)

Cosmos 80 Rocket - Pass Details

Date: 26 September 2021
Orbit: 1360 x 1510 km, 56.1° (Epoch: 23 October)

Event Time Altitude Azimuth Distance (km) Brightness Sun altitude
Rises 19:53:23 0° 342° (NNW) 4,590 8.2 -30.5°
Reaches altitude 10° 19:56:34 10° 348° (NNW) 3,595 7.5 -31.3°
Enters shadow 20:01:56 35° 15° (NNE) 2,175 6.1 -32.7°
